| time (UTC) | temp F | wind direction | speed MPH | gust MPH | rain 1hr in | rain 24hr in | rain mn in | humidity % | barometer mb |
| 20260902170804 | 81 | 7 | 1.0 | 3.0 | 0.00 | 0.00 | 0.00 | 53 | 1017.5 |
| 20260902160802 | 85 | 247 | 6.0 | 10.0 | 0.00 | 0.00 | 0.00 | 46 | 1017.1 |
| 20260902150302 | 86 | 240 | 3.0 | 13.0 | 0.00 | 0.00 | 0.00 | 45 | 1017.4 |
| 20260902140302 | 87 | 254 | 6.0 | 13.0 | 0.00 | 0.00 | 0.00 | 45 | 1018.0 |
| 20260902130802 | 86 | 225 | 3.0 | 12.0 | 0.00 | 0.00 | 0.00 | 46 | 1018.6 |
| 20260902130302 | 85 | 251 | 2.0 | 10.0 | 0.00 | 0.00 | 0.00 | 47 | 1018.7 |
| 20260902120802 | 85 | 237 | 5.0 | 10.0 | 0.00 | 0.00 | 0.00 | 49 | 1019.4 |
| 20260902120303 | 85 | 244 | 3.0 | 10.0 | 0.00 | 0.00 | 0.00 | 51 | 1019.4 |
| 20260902110802 | 83 | 240 | 1.0 | 3.0 | 0.00 | 0.00 | 0.00 | 49 | 1019.9 |
| 20260902110303 | 83 | 223 | 2.0 | 6.0 | 0.00 | 0.00 | 0.00 | 50 | 1019.9 |
| 20260902100802 | 79 | 237 | 1.0 | 3.0 | 0.00 | 0.00 | 0.00 | 55 | 1021.0 |
| 20260902100302 | 79 | 192 | 2.0 | 3.0 | 0.00 | 0.00 | 0.00 | 55 | 1020.9 |
| 20260902090803 | 75 | 106 | 1.0 | 2.0 | 0.00 | 0.00 | 0.00 | 63 | 1021.6 |
| 20260902090302 | 75 | 182 | 1.0 | 3.0 | 0.00 | 0.00 | 0.00 | 66 | 1021.7 |
| 20260902080803 | 73 | 176 | 0.0 | 1.0 | 0.00 | 0.00 | 0.00 | 68 | 1021.6 |
| 20260902070803 | 71 | 219 | 1.0 | 2.0 | 0.00 | 0.00 | 0.00 | 75 | 1021.8 |
| 20260902070303 | 70 | 95 | 1.0 | 3.0 | 0.00 | 0.00 | 0.00 | 76 | 1021.7 |
| 20260902060803 | 67 | 185 | 1.0 | 1.0 | 0.00 | 0.00 | 0.00 | 81 | 1021.9 |
| 20260902060303 | 67 | 192 | 1.0 | 3.0 | 0.00 | 0.00 | 0.00 | 82 | 1021.7 |
| 20260902040803 | 67 | 54 | 1.0 | 3.0 | 0.00 | 0.00 | 0.00 | 80 | 1021.1 |
| 20260902040303 | 67 | 47 | 1.0 | 3.0 | 0.00 | 0.00 | 0.00 | 80 | 1021.1 |
| 20260902030802 | 67 | 96 | 1.0 | 3.0 | 0.00 | 0.00 | 0.00 | 81 | 1021.0 |
| 20260902030303 | 67 | 100 | 1.0 | 2.0 | 0.00 | 0.00 | 0.00 | 81 | 1021.1 |
| 20260902020803 | 68 | 48 | 1.0 | 1.0 | 0.00 | 0.00 | 0.00 | 78 | 1021.0 |
| 20260902020303 | 68 | 61 | 1.0 | 3.0 | 0.00 | 0.00 | 0.00 | 78 | 1021.1 |
| 20260902010303 | 68 | 78 | 0.0 | 1.0 | 0.00 | 0.00 | 0.00 | 80 | 1021.1 |
| 20260902000803 | 69 | 78 | 0.0 | 0.0 | 0.00 | 0.00 | 0.00 | 77 | 1021.1 |
| 20260902000304 | 68 | 78 | 0.0 | 2.0 | 0.00 | 0.00 | 0.00 | 79 | 1021.0 |
| 20260901230803 | 70 | 57 | 1.0 | 2.0 | 0.00 | 0.00 | 0.00 | 74 | 1021.1 |
| 20260901230304 | 70 | 52 | 0.0 | 2.0 | 0.00 | 0.00 | 0.00 | 75 | 1021.1 |
| 20260901220803 | 71 | 47 | 1.0 | 3.0 | 0.00 | 0.00 | 0.00 | 71 | 1021.2 |
| 20260901210804 | 72 | 63 | 0.0 | 2.0 | 0.00 | 0.00 | 0.00 | 70 | 1020.9 |
| 20260901210303 | 72 | 86 | 1.0 | 3.0 | 0.00 | 0.00 | 0.00 | 70 | 1020.8 |
| 20260901200804 | 74 | 18 | 1.0 | 2.0 | 0.00 | 0.00 | 0.00 | 66 | 1020.1 |
| 20260901190803 | 76 | 79 | 1.0 | 3.0 | 0.00 | 0.00 | 0.00 | 63 | 1019.3 |
| 20260901190303 | 77 | 47 | 1.0 | 3.0 | 0.00 | 0.00 | 0.00 | 63 | 1019.4 |
| 20260901180804 | 79 | 310 | 1.0 | 2.0 | 0.00 | 0.00 | 0.00 | 59 | 1018.4 |
| 20260901180304 | 79 | 321 | 0.0 | 5.0 | 0.00 | 0.00 | 0.00 | 59 | 1018.4 |